TimeEDT,TemperatureF,Dew PointF,Humidity,Sea Level PressureIn,VisibilityMPH,Wind Direction,Wind SpeedMPH,Gust SpeedMPH,PrecipitationIn,Events,Conditions,WindDirDegrees,DateUTC
12:54 AM,54.0,41.0,62,30.09,10.0,Calm,Calm,-,N/A,,Clear,0,2013-06-05 04:54:00
1:54 AM,53.1,42.1,66,30.09,10.0,Calm,Calm,-,N/A,,Clear,0,2013-06-05 05:54:00
2:54 AM,48.9,43.0,80,30.09,10.0,Calm,Calm,-,N/A,,Clear,0,2013-06-05 06:54:00
3:54 AM,45.0,41.0,86,30.11,10.0,Calm,Calm,-,N/A,,Clear,0,2013-06-05 07:54:00
4:54 AM,43.0,41.0,93,30.14,10.0,Calm,Calm,-,N/A,,Clear,0,2013-06-05 08:54:00
5:54 AM,45.0,43.0,93,30.16,10.0,Calm,Calm,-,N/A,,Clear,0,2013-06-05 09:54:00
6:54 AM,54.0,43.0,66,30.16,10.0,Calm,Calm,-,N/A,,Clear,0,2013-06-05 10:54:00
7:54 AM,57.0,37.0,47,30.17,10.0,Calm,Calm,-,N/A,,Clear,0,2013-06-05 11:54:00
8:54 AM,59.0,37.9,46,30.18,10.0,Calm,Calm,-,N/A,,Clear,0,2013-06-05 12:54:00
9:54 AM,62.1,37.9,41,30.17,10.0,North,3.5,-,N/A,,Clear,10,2013-06-05 13:54:00
10:54 AM,64.0,39.0,40,30.17,10.0,NE,9.2,-,N/A,,Clear,40,2013-06-05 14:54:00
11:54 AM,66.9,37.0,33,30.15,10.0,ENE,3.5,-,N/A,,Clear,70,2013-06-05 15:54:00
12:54 PM,69.1,35.1,29,30.14,10.0,ENE,8.1,-,N/A,,Clear,70,2013-06-05 16:54:00
1:54 PM,71.1,34.0,26,30.13,10.0,Variable,4.6,-,N/A,,Clear,0,2013-06-05 17:54:00
2:54 PM,73.0,33.1,23,30.11,10.0,Variable,4.6,-,N/A,,Clear,0,2013-06-05 18:54:00
3:54 PM,73.0,30.0,20,30.10,10.0,WNW,9.2,-,N/A,,Clear,300,2013-06-05 19:54:00
4:54 PM,73.0,32.0,22,30.09,10.0,West,8.1,-,N/A,,Clear,280,2013-06-05 20:54:00
5:54 PM,70.0,34.0,27,30.08,10.0,WNW,3.5,-,N/A,,Clear,300,2013-06-05 21:54:00
6:54 PM,66.9,39.0,36,30.11,10.0,NNW,3.5,-,N/A,,Clear,330,2013-06-05 22:54:00
7:54 PM,64.0,42.1,45,30.12,10.0,Calm,Calm,-,N/A,,Clear,0,2013-06-05 23:54:00
8:54 PM,55.0,46.0,72,30.14,10.0,Calm,Calm,-,N/A,,Clear,0,2013-06-06 00:54:00
9:54 PM,52.0,45.0,77,30.15,10.0,Calm,Calm,-,N/A,,Clear,0,2013-06-06 01:54:00
10:54 PM,52.0,46.0,80,30.17,10.0,Calm,Calm,-,N/A,,Clear,0,2013-06-06 02:54:00
11:54 PM,51.1,46.0,83,30.17,10.0,Calm,Calm,-,N/A,,Clear,0,2013-06-06 03:54:00